{"data":{"norad_id":67529,"epoch":"2026-09-20T13:52:53.152608Z","epoch_age_seconds":89893,"freshness":"FRESH","line1":"1 67529U 26013H   26263.57839297 -.00000094  00000+0  65547-4 0  9994","line2":"2 67529  50.0064  13.2085 0000773 107.0716 253.0241 13.29327891 32731","mean_motion":13.29327891,"eccentricity":7.73e-5,"inclination_deg":50.0064,"raan_deg":13.2085,"arg_perigee_deg":107.0716,"mean_anomaly_deg":253.0241,"bstar":6.5547e-5,"rev_number":3273,"period_min":108.32541841251,"perigee_km":1148.7175623728,"apogee_km":1149.8813040454,"semimajor_km":7527.4364332091,"source":"CELESTRAK","updated_at":"2026-09-21T09:00:16.681688Z"}}